Location: Hradec Kralove
(50.2170°N, 15.8330°E)
Time: 05:04:55
(UTC+02:00)

Explorer 7 - Pass Details

Date: 04 February 2023
Orbit: 478 x 657 km, 50.3° (Epoch: 25 March)

Event Time Altitude Azimuth Distance (km) Brightness Sun altitude
Rises 15:38:03 0° 282° (WNW) 2,800 11.0 9.5°
Reaches altitude 10° 15:40:17 10° 280° (W) 1,930 10.3 9.2°
Maximum altitude 15:44:42 72° 197° (SSW) 654 7.6 8.7°
Drops below altitude 10° 15:49:21 10° 114° (ESE) 2,027 9.5 8.1°
Sets 15:51:44 0° 112° (ESE) 2,955 10.2 7.8°
